contact:dominique.lefevre@mio.osupytheas.fr, maurice.libes@osupytheas.fr, didier.mallarino@osupytheas.fr
Project:EMSO http://www.emso-fr.org/EMSO-France
Depth: 2436.0 m
Title:EMSO Ligure Ouest : Data MII capteur CSTAR
DateTime,Latitude,Longitude,Instrument_Serial,Reference_Counts,Signal_Counts,Corrected_Signal_raw_counts,Calculated_Beam_c_inverse_meters,Internal_thermistor_counts
DateTime,Latitude,Longitude,Instrument_Serial,Reference_Counts,Signal_Counts,Corrected_Signal_raw_counts,Calculated_Beam_c_inverse_meters,Internal_thermistor_counts
2023-04-15T00:02:23,42.805,6.029,CST-1368DR,4322,4758,11689,01.159,551
2023-04-15T00:05:25,42.805,6.029,CST-1368DR,4322,4757,11687,01.159,551
2023-04-15T00:08:26,42.805,6.029,CST-1368DR,4322,4756,11685,01.160,551
2023-04-15T00:11:28,42.805,6.029,CST-1368DR,4322,4758,11691,01.158,551
2023-04-15T00:14:30,42.805,6.029,CST-1368DR,4322,4758,11689,01.159,551
2023-04-15T00:17:31,42.805,6.029,CST-1368DR,4322,4756,11685,01.160,551
2023-04-15T00:20:33,42.805,6.029,CST-1368DR,4322,4756,11686,01.160,551
2023-04-15T00:23:34,42.805,6.029,CST-1368DR,4322,4758,11689,01.159,551
2023-04-15T00:26:36,42.805,6.029,CST-1368DR,4322,4756,11685,01.160,551
2023-04-15T00:29:37,42.805,6.029,CST-1368DR,4322,4756,11685,01.160,551
2023-04-15T00:32:39,42.805,6.029,CST-1368DR,4322,4756,11684,01.160,551
2023-04-15T00:35:41,42.805,6.029,CST-1368DR,4322,4757,11687,01.159,551
2023-04-15T00:38:42,42.805,6.029,CST-1368DR,4322,4756,11686,01.160,551
2023-04-15T00:41:44,42.805,6.029,CST-1368DR,4322,4756,11684,01.160,551
2023-04-15T00:44:45,42.805,6.029,CST-1368DR,4322,4756,11684,01.160,551
2023-04-15T00:47:47,42.805,6.029,CST-1368DR,4322,4756,11685,01.160,552
2023-04-15T00:50:48,42.805,6.029,CST-1368DR,4322,4757,11688,01.159,552
2023-04-15T00:53:50,42.805,6.029,CST-1368DR,4322,4750,11671,01.165,551
2023-04-15T00:56:52,42.805,6.029,CST-1368DR,4322,4755,11683,01.161,552
2023-04-15T00:59:53,42.805,6.029,CST-1368DR,4322,4757,11688,01.159,551
2023-04-15T01:02:55,42.805,6.029,CST-1368DR,4322,4757,11688,01.159,551
2023-04-15T01:05:56,42.805,6.029,CST-1368DR,4322,4756,11685,01.160,551
2023-04-15T01:08:58,42.805,6.029,CST-1368DR,4322,4757,11687,01.159,551
2023-04-15T01:12:00,42.805,6.029,CST-1368DR,4322,4755,11682,01.161,551
2023-04-15T01:15:01,42.805,6.029,CST-1368DR,4322,4753,11677,01.163,551
2023-04-15T01:18:03,42.805,6.029,CST-1368DR,4322,4757,11687,01.159,551
2023-04-15T01:21:04,42.805,6.029,CST-1368DR,4322,4754,11681,01.161,551
2023-04-15T01:24:06,42.805,6.029,CST-1368DR,4322,4755,11683,01.161,551
2023-04-15T01:27:07,42.805,6.029,CST-1368DR,4322,4757,11687,01.159,552
2023-04-15T01:30:09,42.805,6.029,CST-1368DR,4322,4756,11685,01.160,551
2023-04-15T01:33:11,42.805,6.029,CST-1368DR,4322,4757,11688,01.159,551
2023-04-15T01:36:12,42.805,6.029,CST-1368DR,4322,4755,11683,01.161,551
2023-04-15T01:39:14,42.805,6.029,CST-1368DR,4322,4757,11687,01.159,551
2023-04-15T01:42:15,42.805,6.029,CST-1368DR,4322,4756,11686,01.160,551
2023-04-15T01:45:17,42.805,6.029,CST-1368DR,4322,4756,11686,01.160,551
2023-04-15T01:48:18,42.805,6.029,CST-1368DR,4322,4753,11677,01.163,551
2023-04-15T01:51:20,42.805,6.029,CST-1368DR,4322,4756,11684,01.160,551
2023-04-15T01:54:22,42.805,6.029,CST-1368DR,4322,4756,11684,01.160,551
2023-04-15T01:57:23,42.805,6.029,CST-1368DR,4322,4756,11684,01.160,552
2023-04-15T02:00:25,42.805,6.029,CST-1368DR,4322,4753,11678,01.162,551
2023-04-15T02:03:26,42.805,6.029,CST-1368DR,4322,4756,11686,01.160,551
2023-04-15T02:06:28,42.805,6.029,CST-1368DR,4322,4755,11683,01.161,551
2023-04-15T02:09:30,42.805,6.029,CST-1368DR,4322,4756,11684,01.160,551
2023-04-15T02:12:31,42.805,6.029,CST-1368DR,4322,4754,11681,01.161,551
2023-04-15T02:15:33,42.805,6.029,CST-1368DR,4322,4756,11686,01.160,551
2023-04-15T02:18:34,42.805,6.029,CST-1368DR,4322,4756,11685,01.160,551
2023-04-15T02:21:36,42.805,6.029,CST-1368DR,4322,4756,11684,01.160,551
2023-04-15T02:24:37,42.805,6.029,CST-1368DR,4322,4755,11683,01.161,551
2023-04-15T02:27:39,42.805,6.029,CST-1368DR,4322,4755,11682,01.161,551
2023-04-15T02:30:41,42.805,6.029,CST-1368DR,4322,4756,11685,01.160,551
2023-04-15T02:33:42,42.805,6.029,CST-1368DR,4322,4755,11683,01.161,551
2023-04-15T02:36:44,42.805,6.029,CST-1368DR,4322,4755,11682,01.161,551
2023-04-15T02:39:45,42.805,6.029,CST-1368DR,4322,4755,11683,01.161,551
2023-04-15T02:42:47,42.805,6.029,CST-1368DR,4322,4755,11683,01.161,551
2023-04-15T02:45:48,42.805,6.029,CST-1368DR,4322,4755,11683,01.161,551
2023-04-15T02:48:50,42.805,6.029,CST-1368DR,4322,4753,11678,01.162,551
2023-04-15T02:51:52,42.805,6.029,CST-1368DR,4322,4754,11680,01.162,551
2023-04-15T02:54:53,42.805,6.029,CST-1368DR,4322,4756,11686,01.160,552
2023-04-15T02:57:55,42.805,6.029,CST-1368DR,4322,4752,11676,01.163,551
2023-04-15T03:00:56,42.805,6.029,CST-1368DR,4322,4753,11679,01.162,551
2023-04-15T03:03:58,42.805,6.029,CST-1368DR,4322,4739,11644,01.174,551
2023-04-15T03:07:00,42.805,6.029,CST-1368DR,4322,4755,11683,01.161,551
2023-04-15T03:10:01,42.805,6.029,CST-1368DR,4322,4755,11683,01.161,551
2023-04-15T03:13:03,42.805,6.029,CST-1368DR,4322,4754,11680,01.162,551
2023-04-15T03:16:04,42.805,6.029,CST-1368DR,4322,4755,11682,01.161,551
2023-04-15T03:19:06,42.805,6.029,CST-1368DR,4322,4755,11682,01.161,551
2023-04-15T03:22:07,42.805,6.029,CST-1368DR,4322,4753,11678,01.162,551
2023-04-15T03:25:09,42.805,6.029,CST-1368DR,4322,4755,11683,01.161,551
2023-04-15T03:28:11,42.805,6.029,CST-1368DR,4322,4755,11683,01.161,552
2023-04-15T03:31:12,42.805,6.029,CST-1368DR,4322,4754,11679,01.162,551
2023-04-15T03:34:14,42.805,6.029,CST-1368DR,4322,4753,11678,01.162,551
2023-04-15T03:37:15,42.805,6.029,CST-1368DR,4322,4755,11683,01.161,551
2023-04-15T03:40:17,42.805,6.029,CST-1368DR,4322,4755,11683,01.161,551
2023-04-15T03:43:18,42.805,6.029,CST-1368DR,4322,4754,11679,01.162,551
2023-04-15T03:46:20,42.805,6.029,CST-1368DR,4322,4754,11680,01.162,551
2023-04-15T03:49:22,42.805,6.029,CST-1368DR,4322,4754,11681,01.161,551
2023-04-15T03:52:23,42.805,6.029,CST-1368DR,4322,4753,11677,01.163,551
2023-04-15T03:55:25,42.805,6.029,CST-1368DR,4322,4753,11678,01.162,551
2023-04-15T03:58:26,42.805,6.029,CST-1368DR,4322,4754,11680,01.162,551
2023-04-15T04:01:28,42.805,6.029,CST-1368DR,4322,4754,11680,01.162,551
2023-04-15T04:04:30,42.805,6.029,CST-1368DR,4322,4754,11680,01.162,552
2023-04-15T04:07:31,42.805,6.029,CST-1368DR,4322,4753,11679,01.162,552
2023-04-15T04:10:33,42.805,6.029,CST-1368DR,4322,4753,11677,01.163,551
2023-04-15T04:13:34,42.805,6.029,CST-1368DR,4322,4754,11680,01.162,551
2023-04-15T04:16:36,42.805,6.029,CST-1368DR,4322,4754,11680,01.162,551
2023-04-15T04:19:37,42.805,6.029,CST-1368DR,4322,4752,11675,01.163,552
2023-04-15T04:22:39,42.805,6.029,CST-1368DR,4322,4753,11679,01.162,551
2023-04-15T04:25:41,42.805,6.029,CST-1368DR,4322,4753,11679,01.162,551
2023-04-15T04:28:42,42.805,6.029,CST-1368DR,4322,4754,11681,01.161,551
2023-04-15T04:31:44,42.805,6.029,CST-1368DR,4322,4753,11677,01.163,551
2023-04-15T04:34:45,42.805,6.029,CST-1368DR,4322,4753,11677,01.163,551
2023-04-15T04:37:47,42.805,6.029,CST-1368DR,4322,4753,11677,01.163,551
2023-04-15T04:40:48,42.805,6.029,CST-1368DR,4322,4754,11681,01.161,551
2023-04-15T04:43:50,42.805,6.029,CST-1368DR,4322,4753,11678,01.162,551
2023-04-15T04:46:52,42.805,6.029,CST-1368DR,4322,4753,11678,01.162,551
2023-04-15T04:49:53,42.805,6.029,CST-1368DR,4322,4752,11676,01.163,551
2023-04-15T04:52:55,42.805,6.029,CST-1368DR,4322,4753,11679,01.162,551
2023-04-15T04:55:56,42.805,6.029,CST-1368DR,4322,4752,11675,01.163,551
2023-04-15T04:58:58,42.805,6.029,CST-1368DR,4322,4754,11680,01.162,551
2023-04-15T05:02:00,42.805,6.029,CST-1368DR,4322,4753,11678,01.162,551
2023-04-15T05:05:01,42.805,6.029,CST-1368DR,4322,4753,11679,01.162,552
2023-04-15T05:08:03,42.805,6.029,CST-1368DR,4322,4756,11684,01.160,551
2023-04-15T05:11:04,42.805,6.029,CST-1368DR,4322,4754,11679,01.162,551
2023-04-15T05:14:06,42.805,6.029,CST-1368DR,4322,4754,11680,01.162,551
2023-04-15T05:17:07,42.805,6.029,CST-1368DR,4322,4754,11679,01.162,551
2023-04-15T05:20:09,42.805,6.029,CST-1368DR,4322,4755,11683,01.161,551
2023-04-15T05:23:11,42.805,6.029,CST-1368DR,4322,4755,11682,01.161,551
2023-04-15T05:26:12,42.805,6.029,CST-1368DR,4322,4754,11680,01.162,551
2023-04-15T05:29:14,42.805,6.029,CST-1368DR,4322,4754,11680,01.162,552
2023-04-15T05:32:15,42.805,6.029,CST-1368DR,4322,4754,11679,01.162,551
2023-04-15T05:35:17,42.805,6.029,CST-1368DR,4322,4754,11679,01.162,551
2023-04-15T05:38:18,42.805,6.029,CST-1368DR,4322,4752,11675,01.163,551
2023-04-15T05:41:20,42.805,6.029,CST-1368DR,4322,4755,11683,01.161,551
2023-04-15T05:44:22,42.805,6.029,CST-1368DR,4322,4751,11672,01.164,551
2023-04-15T05:47:23,42.805,6.029,CST-1368DR,4322,4753,11679,01.162,551
2023-04-15T05:50:25,42.805,6.029,CST-1368DR,4322,4753,11677,01.163,552
2023-04-15T05:53:26,42.805,6.029,CST-1368DR,4322,4755,11682,01.161,551
2023-04-15T05:56:28,42.805,6.029,CST-1368DR,4322,4755,11683,01.161,551
2023-04-15T05:59:30,42.805,6.029,CST-1368DR,4322,4756,11684,01.160,551
2023-04-15T06:02:31,42.805,6.029,CST-1368DR,4322,4754,11680,01.162,551
2023-04-15T06:05:33,42.805,6.029,CST-1368DR,4322,4752,11676,01.163,551
2023-04-15T06:08:34,42.805,6.029,CST-1368DR,4322,4755,11683,01.161,551
2023-04-15T06:11:36,42.805,6.029,CST-1368DR,4322,4755,11682,01.161,551
2023-04-15T06:14:37,42.805,6.029,CST-1368DR,4322,4753,11679,01.162,551
2023-04-15T06:17:39,42.805,6.029,CST-1368DR,4322,4752,11675,01.163,551
2023-04-15T06:20:41,42.805,6.029,CST-1368DR,4322,4755,11683,01.161,552
2023-04-15T06:23:42,42.805,6.029,CST-1368DR,4322,4756,11684,01.160,551
2023-04-15T06:26:44,42.805,6.029,CST-1368DR,4322,4753,11677,01.163,551
2023-04-15T06:29:45,42.805,6.029,CST-1368DR,4322,4754,11680,01.162,551
2023-04-15T06:32:49,42.805,6.029,CST-1368DR,4322,4754,11679,01.162,551
2023-04-15T06:35:51,42.805,6.029,CST-1368DR,4322,4753,11677,01.163,551
2023-04-15T06:38:53,42.805,6.029,CST-1368DR,4322,4752,11675,01.163,551
2023-04-15T06:41:54,42.805,6.029,CST-1368DR,4322,4754,11680,01.162,551
2023-04-15T06:44:56,42.805,6.029,CST-1368DR,4322,4755,11683,01.161,551
2023-04-15T06:47:57,42.805,6.029,CST-1368DR,4322,4753,11679,01.162,551
2023-04-15T06:50:59,42.805,6.029,CST-1368DR,4322,4749,11667,01.166,551
2023-04-15T06:54:00,42.805,6.029,CST-1368DR,4322,4753,11677,01.163,551
2023-04-15T06:57:02,42.805,6.029,CST-1368DR,4322,4754,11681,01.161,551
2023-04-15T07:00:04,42.805,6.029,CST-1368DR,4322,4751,11672,01.164,551
2023-04-15T07:03:05,42.805,6.029,CST-1368DR,4322,4752,11676,01.163,551
2023-04-15T07:06:07,42.805,6.029,CST-1368DR,4322,4755,11682,01.161,551
2023-04-15T07:09:08,42.805,6.029,CST-1368DR,4322,4755,11683,01.161,551
2023-04-15T07:12:10,42.805,6.029,CST-1368DR,4322,4752,11676,01.163,551
2023-04-15T07:15:11,42.805,6.029,CST-1368DR,4322,4752,11675,01.163,551
2023-04-15T07:18:13,42.805,6.029,CST-1368DR,4322,4754,11680,01.162,551
2023-04-15T07:21:15,42.805,6.029,CST-1368DR,4322,4753,11679,01.162,551
2023-04-15T07:24:16,42.805,6.029,CST-1368DR,4322,4750,11671,01.165,551
2023-04-15T07:27:18,42.805,6.029,CST-1368DR,4322,4755,11682,01.161,551
2023-04-15T07:30:19,42.805,6.029,CST-1368DR,4322,4753,11677,01.163,551
2023-04-15T07:33:21,42.805,6.029,CST-1368DR,4322,4750,11671,01.165,551
2023-04-15T07:36:22,42.805,6.029,CST-1368DR,4322,4750,11669,01.165,551
2023-04-15T07:39:24,42.805,6.029,CST-1368DR,4322,4752,11676,01.163,551
2023-04-15T07:42:26,42.805,6.029,CST-1368DR,4322,4752,11676,01.163,551
2023-04-15T07:45:27,42.805,6.029,CST-1368DR,4322,4753,11677,01.163,551
2023-04-15T07:48:29,42.805,6.029,CST-1368DR,4322,4753,11679,01.162,551
2023-04-15T07:51:30,42.805,6.029,CST-1368DR,4322,4751,11672,01.164,551
2023-04-15T07:54:32,42.805,6.029,CST-1368DR,4322,4753,11677,01.163,551
2023-04-15T07:57:34,42.805,6.029,CST-1368DR,4322,4754,11679,01.162,551
2023-04-15T08:00:35,42.805,6.029,CST-1368DR,4322,4754,11680,01.162,551
2023-04-15T08:03:37,42.805,6.029,CST-1368DR,4322,4752,11674,01.164,551
2023-04-15T08:06:38,42.805,6.029,CST-1368DR,4322,4752,11676,01.163,551
2023-04-15T08:09:40,42.805,6.029,CST-1368DR,4322,4753,11678,01.162,551
2023-04-15T08:12:41,42.805,6.029,CST-1368DR,4322,4753,11677,01.163,551
2023-04-15T08:15:43,42.805,6.029,CST-1368DR,4322,4750,11670,01.165,551
2023-04-15T08:18:45,42.805,6.029,CST-1368DR,4322,4753,11677,01.163,552
2023-04-15T08:21:46,42.805,6.029,CST-1368DR,4322,4754,11679,01.162,551
2023-04-15T08:24:48,42.805,6.029,CST-1368DR,4322,4754,11680,01.162,551
2023-04-15T08:27:49,42.805,6.029,CST-1368DR,4322,4752,11675,01.163,551
2023-04-15T08:30:52,42.805,6.029,CST-1368DR,4322,4754,11680,01.162,551
2023-04-15T08:33:54,42.805,6.029,CST-1368DR,4322,4754,11681,01.161,551
2023-04-15T08:36:55,42.805,6.029,CST-1368DR,4322,4754,11679,01.162,551
2023-04-15T08:39:57,42.805,6.029,CST-1368DR,4322,4749,11667,01.166,551
2023-04-15T08:42:58,42.805,6.029,CST-1368DR,4322,4751,11673,01.164,551
2023-04-15T08:46:00,42.805,6.029,CST-1368DR,4322,4752,11676,01.163,551
2023-04-15T08:49:01,42.805,6.029,CST-1368DR,4322,4753,11677,01.163,551
2023-04-15T08:52:03,42.805,6.029,CST-1368DR,4322,4753,11677,01.163,552
2023-04-15T08:55:05,42.805,6.029,CST-1368DR,4322,4753,11677,01.163,551
2023-04-15T08:58:06,42.805,6.029,CST-1368DR,4322,4753,11677,01.163,551
2023-04-15T09:01:08,42.805,6.029,CST-1368DR,4322,4752,11675,01.163,551
2023-04-15T09:04:09,42.805,6.029,CST-1368DR,4322,4751,11672,01.164,551
2023-04-15T09:07:11,42.805,6.029,CST-1368DR,4322,4752,11676,01.163,551
2023-04-15T09:10:12,42.805,6.029,CST-1368DR,4322,4752,11675,01.163,551
2023-04-15T09:13:14,42.805,6.029,CST-1368DR,4322,4752,11676,01.163,551
2023-04-15T09:16:16,42.805,6.029,CST-1368DR,4322,4752,11674,01.164,551
2023-04-15T09:19:17,42.805,6.029,CST-1368DR,4322,4753,11678,01.162,551
2023-04-15T09:22:19,42.805,6.029,CST-1368DR,4322,4753,11678,01.162,551
2023-04-15T09:25:20,42.805,6.029,CST-1368DR,4322,4753,11678,01.162,551
2023-04-15T09:28:22,42.805,6.029,CST-1368DR,4322,4751,11672,01.164,551
2023-04-15T09:31:24,42.805,6.029,CST-1368DR,4322,4753,11677,01.163,551
2023-04-15T09:34:25,42.805,6.029,CST-1368DR,4322,4751,11672,01.164,551
2023-04-15T09:37:27,42.805,6.029,CST-1368DR,4322,4753,11677,01.163,551
2023-04-15T09:40:28,42.805,6.029,CST-1368DR,4322,4752,11675,01.163,551
2023-04-15T09:43:30,42.805,6.029,CST-1368DR,4322,4751,11672,01.164,551
2023-04-15T09:46:31,42.805,6.029,CST-1368DR,4322,4754,11679,01.162,551
2023-04-15T09:49:33,42.805,6.029,CST-1368DR,4322,4746,11661,01.168,551
2023-04-15T09:52:35,42.805,6.029,CST-1368DR,4322,4752,11675,01.163,551
2023-04-15T09:55:36,42.805,6.029,CST-1368DR,4322,4752,11674,01.164,552
2023-04-15T09:58:38,42.805,6.029,CST-1368DR,4322,4750,11670,01.165,551
2023-04-15T10:01:39,42.805,6.029,CST-1368DR,4322,4753,11677,01.163,551
2023-04-15T10:04:41,42.805,6.029,CST-1368DR,4322,4752,11676,01.163,551
2023-04-15T10:07:42,42.805,6.029,CST-1368DR,4322,4750,11669,01.165,552
2023-04-15T10:10:44,42.805,6.029,CST-1368DR,4322,4752,11676,01.163,551
2023-04-15T10:13:46,42.805,6.029,CST-1368DR,4322,4754,11679,01.162,551
2023-04-15T10:16:47,42.805,6.029,CST-1368DR,4322,4752,11675,01.163,551
2023-04-15T10:19:49,42.805,6.029,CST-1368DR,4322,4752,11674,01.164,551
2023-04-15T10:22:50,42.805,6.029,CST-1368DR,4322,4752,11675,01.163,552
2023-04-15T10:25:52,42.805,6.029,CST-1368DR,4322,4753,11677,01.163,551
2023-04-15T10:28:54,42.805,6.029,CST-1368DR,4322,4752,11676,01.163,552
2023-04-15T10:31:55,42.805,6.029,CST-1368DR,4322,4752,11676,01.163,551
2023-04-15T10:34:57,42.805,6.029,CST-1368DR,4322,4752,11676,01.163,551
2023-04-15T10:37:58,42.805,6.029,CST-1368DR,4322,4749,11667,01.166,551
2023-04-15T10:41:00,42.805,6.029,CST-1368DR,4322,4752,11675,01.163,551
2023-04-15T10:44:01,42.805,6.029,CST-1368DR,4322,4753,11677,01.163,551
2023-04-15T10:47:03,42.805,6.029,CST-1368DR,4322,4753,11677,01.163,551
2023-04-15T10:50:05,42.805,6.029,CST-1368DR,4322,4750,11670,01.165,551
2023-04-15T10:53:06,42.805,6.029,CST-1368DR,4322,4752,11675,01.163,551
2023-04-15T10:56:08,42.805,6.029,CST-1368DR,4322,4752,11675,01.163,551
2023-04-15T10:59:09,42.805,6.029,CST-1368DR,4322,4750,11669,01.165,551
2023-04-15T11:02:11,42.805,6.029,CST-1368DR,4322,4750,11671,01.165,551
2023-04-15T11:05:12,42.805,6.029,CST-1368DR,4322,4752,11675,01.163,551
2023-04-15T11:08:14,42.805,6.029,CST-1368DR,4322,4747,11663,01.167,551
2023-04-15T11:11:16,42.805,6.029,CST-1368DR,4322,4751,11672,01.164,551
2023-04-15T11:14:17,42.805,6.029,CST-1368DR,4322,4747,11662,01.168,551
2023-04-15T11:17:19,42.805,6.029,CST-1368DR,4322,4747,11663,01.167,551
2023-04-15T11:20:20,42.805,6.029,CST-1368DR,4322,4750,11671,01.165,551
2023-04-15T11:23:22,42.805,6.029,CST-1368DR,4322,4733,11628,01.180,551
2023-04-15T11:26:24,42.805,6.029,CST-1368DR,4322,4735,11633,01.178,551
2023-04-15T11:29:25,42.805,6.029,CST-1368DR,4322,4745,11658,01.169,551
2023-04-15T11:32:27,42.805,6.029,CST-1368DR,4322,4752,11675,01.163,551
2023-04-15T11:35:28,42.805,6.029,CST-1368DR,4322,4753,11677,01.163,551
2023-04-15T11:38:30,42.805,6.029,CST-1368DR,4322,4748,11665,01.167,551
2023-04-15T11:41:31,42.805,6.029,CST-1368DR,4322,4749,11668,01.166,551
2023-04-15T11:44:33,42.805,6.029,CST-1368DR,4322,4751,11673,01.164,551
2023-04-15T11:47:35,42.805,6.029,CST-1368DR,4322,4749,11669,01.165,551
2023-04-15T11:50:36,42.805,6.029,CST-1368DR,4322,4750,11671,01.165,551
2023-04-15T11:53:38,42.805,6.029,CST-1368DR,4322,4752,11674,01.164,551
2023-04-15T11:56:39,42.805,6.029,CST-1368DR,4322,4749,11668,01.166,551
2023-04-15T11:59:41,42.805,6.029,CST-1368DR,4322,4751,11672,01.164,552
2023-04-15T12:02:42,42.805,6.029,CST-1368DR,4322,4751,11672,01.164,551
2023-04-15T12:05:44,42.805,6.029,CST-1368DR,4322,4747,11664,01.167,551
2023-04-15T12:08:46,42.805,6.029,CST-1368DR,4322,4750,11671,01.165,551
2023-04-15T12:11:47,42.805,6.029,CST-1368DR,4322,4749,11668,01.166,551
2023-04-15T12:14:49,42.805,6.029,CST-1368DR,4322,4746,11661,01.168,551
2023-04-15T12:17:50,42.805,6.029,CST-1368DR,4322,4749,11668,01.166,551
2023-04-15T12:20:52,42.805,6.029,CST-1368DR,4322,4750,11671,01.165,551
2023-04-15T12:23:54,42.805,6.029,CST-1368DR,4322,4750,11670,01.165,552
2023-04-15T12:26:55,42.805,6.029,CST-1368DR,4322,4745,11658,01.169,552
2023-04-15T12:29:57,42.805,6.029,CST-1368DR,4322,4751,11672,01.164,551
2023-04-15T12:32:58,42.805,6.029,CST-1368DR,4322,4737,11639,01.176,551
2023-04-15T12:36:00,42.805,6.029,CST-1368DR,4322,4739,11643,01.174,551
2023-04-15T12:39:01,42.805,6.029,CST-1368DR,4322,4737,11639,01.176,551
2023-04-15T12:42:03,42.805,6.029,CST-1368DR,4322,4740,11645,01.174,551
2023-04-15T12:45:05,42.805,6.029,CST-1368DR,4322,4738,11640,01.175,551
2023-04-15T12:48:06,42.805,6.029,CST-1368DR,4322,4737,11638,01.176,552
2023-04-15T12:51:08,42.805,6.029,CST-1368DR,4322,4734,11632,01.178,551
2023-04-15T12:54:09,42.805,6.029,CST-1368DR,4322,4737,11639,01.176,551
2023-04-15T12:57:11,42.805,6.029,CST-1368DR,4322,4735,11633,01.178,551
2023-04-15T13:00:12,42.805,6.029,CST-1368DR,4322,4739,11643,01.174,551
2023-04-15T13:03:14,42.805,6.029,CST-1368DR,4322,4732,11626,01.180,551
2023-04-15T13:06:16,42.805,6.029,CST-1368DR,4322,4738,11642,01.175,551
2023-04-15T13:09:17,42.805,6.029,CST-1368DR,4322,4735,11634,01.177,551
2023-04-15T13:12:19,42.805,6.029,CST-1368DR,4322,4734,11632,01.178,551
2023-04-15T13:15:20,42.805,6.029,CST-1368DR,4322,4740,11645,01.174,551
2023-04-15T13:18:22,42.805,6.029,CST-1368DR,4322,4734,11630,01.179,551
2023-04-15T13:21:24,42.805,6.029,CST-1368DR,4322,4738,11642,01.175,552
2023-04-15T13:24:25,42.805,6.029,CST-1368DR,4322,4737,11638,01.176,551
2023-04-15T13:27:27,42.805,6.029,CST-1368DR,4322,4733,11629,01.179,551
2023-04-15T13:30:28,42.805,6.029,CST-1368DR,4322,4737,11639,01.176,551
2023-04-15T13:33:30,42.805,6.029,CST-1368DR,4322,4740,11647,01.173,551
2023-04-15T13:36:31,42.805,6.029,CST-1368DR,4322,4739,11644,01.174,551
2023-04-15T13:39:33,42.805,6.029,CST-1368DR,4322,4739,11644,01.174,551
2023-04-15T13:42:35,42.805,6.029,CST-1368DR,4322,4740,11646,01.173,551
2023-04-15T13:45:36,42.805,6.029,CST-1368DR,4322,4731,11623,01.181,551
2023-04-15T13:48:38,42.805,6.029,CST-1368DR,4322,4741,11648,01.173,551
2023-04-15T13:51:39,42.805,6.029,CST-1368DR,4322,4742,11650,01.172,551
2023-04-15T13:54:41,42.805,6.029,CST-1368DR,4322,4733,11628,01.180,551
2023-04-15T13:57:42,42.805,6.029,CST-1368DR,4322,4739,11644,01.174,552
2023-04-15T14:00:44,42.805,6.029,CST-1368DR,4322,4741,11647,01.173,551
2023-04-15T14:03:46,42.805,6.029,CST-1368DR,4322,4740,11645,01.174,551
2023-04-15T14:06:47,42.805,6.029,CST-1368DR,4322,4741,11647,01.173,551
2023-04-15T14:09:49,42.805,6.029,CST-1368DR,4322,4739,11644,01.174,551
2023-04-15T14:12:50,42.805,6.029,CST-1368DR,4322,4741,11648,01.173,552
2023-04-15T14:15:52,42.805,6.029,CST-1368DR,4322,4732,11626,01.180,551
2023-04-15T14:18:54,42.805,6.029,CST-1368DR,4322,4740,11645,01.174,551
2023-04-15T14:21:55,42.805,6.029,CST-1368DR,4322,4741,11648,01.173,551
2023-04-15T14:24:57,42.805,6.029,CST-1368DR,4322,4740,11647,01.173,551
2023-04-15T14:27:58,42.805,6.029,CST-1368DR,4322,4740,11646,01.173,551
2023-04-15T14:31:00,42.805,6.029,CST-1368DR,4322,4737,11639,01.176,551
2023-04-15T14:34:02,42.805,6.029,CST-1368DR,4322,4738,11640,01.175,551
2023-04-15T14:37:04,42.805,6.029,CST-1368DR,4322,4744,11656,01.170,551
2023-04-15T14:40:05,42.805,6.029,CST-1368DR,4322,4735,11634,01.177,551
2023-04-15T14:43:07,42.805,6.029,CST-1368DR,4322,4742,11650,01.172,551
2023-04-15T14:46:08,42.805,6.029,CST-1368DR,4322,4743,11654,01.171,551
2023-04-15T14:49:10,42.805,6.029,CST-1368DR,4322,4736,11637,01.176,551
2023-04-15T14:52:12,42.805,6.029,CST-1368DR,4322,4739,11644,01.174,551
2023-04-15T14:55:13,42.805,6.029,CST-1368DR,4322,4740,11647,01.173,551
2023-04-15T14:58:15,42.805,6.029,CST-1368DR,4322,4741,11648,01.173,551
2023-04-15T15:01:16,42.805,6.029,CST-1368DR,4322,4742,11652,01.171,551
2023-04-15T15:04:18,42.805,6.029,CST-1368DR,4322,4746,11661,01.168,551
2023-04-15T15:07:19,42.805,6.029,CST-1368DR,4322,4744,11655,01.170,551
2023-04-15T15:10:21,42.805,6.029,CST-1368DR,4322,4744,11655,01.170,551
2023-04-15T15:13:23,42.805,6.029,CST-1368DR,4322,4744,11656,01.170,551
2023-04-15T15:16:24,42.805,6.029,CST-1368DR,4322,4742,11652,01.171,551
2023-04-15T15:19:26,42.805,6.029,CST-1368DR,4322,4743,11652,01.171,551
2023-04-15T15:22:27,42.805,6.029,CST-1368DR,4322,4741,11648,01.173,551
2023-04-15T15:25:29,42.805,6.029,CST-1368DR,4322,4741,11647,01.173,551
2023-04-15T15:28:30,42.805,6.029,CST-1368DR,4322,4744,11655,01.170,551
2023-04-15T15:31:32,42.805,6.029,CST-1368DR,4322,4743,11653,01.171,551
2023-04-15T15:34:34,42.805,6.029,CST-1368DR,4322,4725,11609,01.186,551
2023-04-15T15:37:35,42.805,6.029,CST-1368DR,4322,4721,11599,01.190,551
2023-04-15T15:40:37,42.805,6.029,CST-1368DR,4322,4727,11615,01.184,551
2023-04-15T15:43:38,42.805,6.029,CST-1368DR,4322,4724,11607,01.187,551
2023-04-15T15:46:40,42.805,6.029,CST-1368DR,4322,4723,11603,01.188,551
2023-04-15T15:49:42,42.805,6.029,CST-1368DR,4322,4724,11607,01.187,551
2023-04-15T15:52:43,42.805,6.029,CST-1368DR,4322,4727,11615,01.184,551
2023-04-15T15:55:45,42.805,6.029,CST-1368DR,4322,4726,11612,01.185,551
2023-04-15T15:58:46,42.805,6.029,CST-1368DR,4322,4726,11612,01.185,551
2023-04-15T16:01:48,42.805,6.029,CST-1368DR,4322,4726,11612,01.185,551
2023-04-15T16:04:49,42.805,6.029,CST-1368DR,4322,4725,11609,01.186,551
2023-04-15T16:07:51,42.805,6.029,CST-1368DR,4322,4727,11614,01.184,551
2023-04-15T16:10:53,42.805,6.029,CST-1368DR,4321,4724,11609,01.186,551
2023-04-15T16:13:54,42.805,6.029,CST-1368DR,4322,4729,11618,01.183,551
2023-04-15T16:16:56,42.805,6.029,CST-1368DR,4321,4729,11622,01.182,551
2023-04-15T16:19:57,42.805,6.029,CST-1368DR,4322,4730,11621,01.182,551
2023-04-15T16:22:59,42.805,6.029,CST-1368DR,4322,4729,11618,01.183,551
2023-04-15T16:26:00,42.805,6.029,CST-1368DR,4321,4727,11616,01.184,551
2023-04-15T16:29:02,42.805,6.029,CST-1368DR,4321,4728,11619,01.183,551
2023-04-15T16:32:04,42.805,6.029,CST-1368DR,4321,4729,11622,01.182,552
2023-04-15T16:35:05,42.805,6.029,CST-1368DR,4321,4727,11616,01.184,551
2023-04-15T16:38:07,42.805,6.029,CST-1368DR,4321,4725,11612,01.185,551